Weather reports worldwide

Advertisment
Freiburg, Germany (10803): temperature & dewpoint: 06.11.2019 17:00:00 - 12.11.2019 17:00:00 (CET)Freiburg, Germany (10803): temperature 5cm & temperature -5cm: 06.11.2019 17:00:00 - 12.11.2019 17:00:00 (CET)Freiburg, Germany (10803): temperature -20cm & temperature -100cm: 06.11.2019 17:00:00 - 12.11.2019 17:00:00 (CET)Freiburg, Germany (10803): wind speed & gusts: 06.11.2019 17:00:00 - 12.11.2019 17:00:00 (CET)Freiburg, Germany (10803): wind direction: 06.11.2019 17:00:00 - 12.11.2019 17:00:00 (CET)Freiburg, Germany (10803): reduced air pressure: 06.11.2019 17:00:00 - 12.11.2019 17:00:00 (CET)Freiburg, Germany (10803): visibility: 06.11.2019 17:00:00 - 12.11.2019 17:00:00 (CET)Freiburg, Germany (10803): sunshine duration: 06.11.2019 17:00:00 - 12.11.2019 17:00:00 (CET)Freiburg, Germany (10803): precipitation: 06.11.2019 17:00:00 - 12.11.2019 17:00:00 (CET)
Date & Time tt [°C] td [°C] tt 5cm [°C] tt -5cm [°C] tt -20cm [°C] tt -100cm [°C] ff [km/h] ff [kn] fx [km/h] fx [kn] dd ppp [hPa] vv [km] sd [min] rr [mm]
12.11.2019 17:00:00 7,9 1,5 6,8 6,3 6,9 11,9 10 6 28 15 SW 1006,9 42 0 0,0
12.11.2019 16:00:00 8,2 1,2 7,4 6,9 6,8 11,9 18 10 29 15 SSW 1006,4 70 0 0,0
12.11.2019 15:00:00 8,4 1,2 7,6 7,0 6,7 12,0 17 9 28 15 SW 1006,6 66 9 0,0
12.11.2019 14:00:00 8,2 1,3 8,0 6,7 6,5 12,0 11 6 33 18 SW 1007,1 52 0 0,0
12.11.2019 13:00:00 7,9 0,7 7,9 6,3 6,4 12,0 21 12 36 19 SW 1007,7 52 0 0,0
12.11.2019 12:00:00 7,5 0,7 7,7 6,1 6,3 12,0 23 13 36 20 SW 1008,6 59 0 0,0
12.11.2019 11:00:00 7,0 0,9 7,0 5,7 6,2 12,0 25 13 40 21 SSW 1009,5 54 0 0,0
12.11.2019 10:00:00 6,5 0,5 5,9 4,7 6,2 12,0 28 15 46 25 SW 1009,4 49 21 0,0
12.11.2019 09:00:00 6,4 0,5 5,9 4,1 6,3 12,0 25 14 42 23 SSW 1009,8 46 36 0,0
12.11.2019 08:00:00 5,5 1,2 3,8 3,8 6,4 12,0 19 10 34 18 SSW 1010,3 62 0 0,0
12.11.2019 07:00:00 5,7 1,9 4,6 4,2 6,5 12,1 23 12 36 20 SSW 1010,2 56 0 0,0
12.11.2019 06:00:00 5,6 1,7 3,9 4,3 6,5 12,1 20 11 34 18 SSW 1010,3 58 0 0,0
12.11.2019 05:00:00 5,9 1,8 5,0 4,7 6,6 12,1 16 9 36 20 SSW 1010,8 63 0 0,0
12.11.2019 04:00:00 6,2 1,7 5,3 4,8 6,6 12,1 21 12 31 17 SW 1010,7 69 0 0,0
12.11.2019 03:00:00 6,1 2,5 5,3 5,0 6,7 12,1 16 9 32 17 SSW 1010,7 69 0 0,0
12.11.2019 02:00:00 6,2 3,0 5,5 5,2 6,7 12,1 17 9 29 16 SW 1010,3 55 0 0,0
12.11.2019 01:00:00 6,3 3,5 5,4 5,3 6,7 12,1 17 9 32 17 SSW 1010,2 66 0 0,0
12.11.2019 00:00:00 6,7 3,7 5,8 5,4 6,7 12,2 20 11 39 21 SW 1009,9 55 0 0,0
11.11.2019 23:00:00 6,8 3,1 5,9 5,3 6,7 12,2 23 12 37 20 SSW 1008,9 70 0 0,0
11.11.2019 22:00:00 6,2 2,6 4,8 5,3 6,8 12,2 18 10 30 16 SSW 1008,8 48 0 0,1
11.11.2019 21:00:00 6,0 2,9 4,7 5,2 6,8 12,2 16 8 32 17 SSW 1008,7 17 0 0,7
11.11.2019 20:00:00 5,3 2,1 4,0 5,0 6,9 12,2 2 1 7 4 S 1008,0 40 0 0,0
11.11.2019 19:00:00 5,9 1,3 3,2 5,2 7,0 12,2 5 3 20 11 S 1008,2 53 0 0,0
11.11.2019 18:00:00 7,1 1,1 5,6 5,5 7,0 12,2 11 6 29 15 S 1008,4 70 0 0,0
11.11.2019 17:00:00 7,2 0,8 5,8 6,1 7,0 12,3 14 8 31 17 S 1008,1 45 0 0,0
11.11.2019 16:00:00 7,3 0,9 6,7 6,8 6,9 12,3 17 9 26 14 SSW 1008,5 42 0 0,0
11.11.2019 15:00:00 6,0 2,3 6,3 7,4 6,7 12,3 6 4 10 5 SSW 1009,0 22 0 0,0
11.11.2019 14:00:00 5,2 1,4 6,2 7,8 6,4 12,3 2 1 7 4 NE 1009,6 21 0 0,0
11.11.2019 13:00:00 4,4 1,1 6,7 8,1 6,1 12,3 2 1 8 5 SE 1010,7 20 2 0,0
11.11.2019 12:00:00 3,4 0,9 5,2 6,6 5,9 12,3 4 2 11 6 W 1011,9 18 14 0,0
11.11.2019 11:00:00 2,8 0,7 4,3 5,4 5,8 12,3 6 4 11 6 ESE 1013,0 19 0 0,0
11.11.2019 10:00:00 2,2 0,7 3,2 4,4 5,7 12,4 6 4 12 7 SE 1013,9 13 0 0,0
11.11.2019 09:00:00 1,5 -0,1 2,3 3,8 5,7 12,4 7 4 12 7 S 1014,4 22 0 0,0
11.11.2019 08:00:00 1,5 0,6 1,9 3,4 5,8 12,4 7 4 16 9 S 1015,3 7 0 0,0
11.11.2019 07:00:00 1,5 0,9 1,8 3,4 5,8 12,4 4 2 9 5 W 1015,7 8 0 0,0
11.11.2019 06:00:00 1,3 1,0 1,7 3,4 5,8 12,4 6 3 9 5 SE 1015,5 3,2 0 0,0
11.11.2019 05:00:00 1,2 1,0 1,8 3,4 5,9 12,4 5 3 7 4 NNW 1017,0 1,0 0 0,0
11.11.2019 04:00:00 0,9 0,9 1,3 3,3 6,0 12,4 3 2 15 8 W 1016,7 0,6 0 0,0
11.11.2019 03:00:00 1,1 1,0 1,5 3,5 6,0 12,5 6 4 10 5 W 1017,1 0,5 0 0,0
11.11.2019 02:00:00 0,8 0,8 1,7 3,4 6,1 12,5 5 3 8 4 NNW 1017,2 0,2 0 0,0
11.11.2019 01:00:00 0,7 0,7 1,5 3,5 6,2 12,5 5 3 10 6 NW 1017,3 0,3 0 0,0
11.11.2019 00:00:00 0,8 0,8 1,6 3,6 6,3 12,5 8 4 11 6 NNW 1017,7 0,2 0 0,0
10.11.2019 23:00:00 1,2 1,1 1,9 3,8 6,3 12,5 7 4 12 6 NW 1017,4 0,2 0 0,0
10.11.2019 22:00:00 1,3 1,2 2,2 3,9 6,4 12,5 4 2 7 4 N 1017,0 0,2 0 0,0
10.11.2019 21:00:00 1,2 1,1 1,9 3,9 6,6 12,5 4 2 8 4 N 1017,4 0,2 0 0,0
10.11.2019 20:00:00 1,4 1,4 2,0 3,8 6,8 12,6 4 2 8 4 NNW 1017,0 0,1 0 0,0
10.11.2019 19:00:00 1,5 1,2 1,2 3,5 7,0 12,6 7 4 9 5 NNW 1016,8 0,1 0 0,0
10.11.2019 18:00:00 3,0 2,2 1,4 4,6 7,1 12,6 4 2 10 6 NNE 1016,0 6 0 0,0
10.11.2019 17:00:00 3,9 2,4 3,0 6,1 7,1 12,6 8 5 12 7 NNW 1015,2 9 0 0,0
10.11.2019 16:00:00 6,3 3,4 6,5 7,8 6,9 12,6 9 5 11 6 NNW 1014,2 19 0 0,0
10.11.2019 15:00:00 7,4 1,8 8,7 9,0 6,5 12,6 2 1 7 4 NW 1013,4 39 0 0,0
10.11.2019 14:00:00 7,0 1,1 9,1 8,9 6,0 12,6 3 2 10 5 NNW 1013,0 44 0 0,0
10.11.2019 13:00:00 6,2 1,2 9,2 8,6 5,5 12,6 8 4 10 5 NNW 1012,8 32 4 0,0
10.11.2019 12:00:00 6,1 1,3 7,8 7,9 4,9 12,7 4 2 8 4 NNW 1012,6 37 49 0,0
10.11.2019 11:00:00 5,0 0,9 6,6 5,7 4,8 12,7 5 3 8 5 SW 1012,6 36 58 0,0
10.11.2019 10:00:00 3,1 0,5 5,2 1,6 4,9 12,7 3 1 5 3 NW 1012,1 30 60 0,0
10.11.2019 09:00:00 0,5 -0,7 0,5 0,6 5,0 12,7 3 2 5 3 W 1011,8 15 47 0,0
10.11.2019 08:00:00 -2,5 -3,4 -4,3 0,6 5,1 12,7 0 0 6 3 N 1011,5 29 0 0,0
10.11.2019 07:00:00 -2,0 -2,5 -4,6 0,6 5,3 12,7 0 0 5 3 N 1010,8 14 0 0,0
10.11.2019 06:00:00 -1,5 -2,0 -5,0 0,7 5,4 12,7 3 2 5 3 WSW 1010,6 15 0 0,0
10.11.2019 05:00:00 -1,0 -1,5 -4,6 0,8 5,6 12,7 2 1 7 4 SSE 1009,9 23 0 0,0
10.11.2019 04:00:00 -1,5 -2,1 -4,4 0,9 5,8 12,8 3 2 6 3 SW 1009,4 22 0 0,0
10.11.2019 03:00:00 -1,0 -1,4 -3,7 1,0 6,0 12,8 3 1 6 3 ENE 1009,3 15 0 0,0
10.11.2019 02:00:00 -1,3 -2,0 -4,0 1,1 6,3 12,8 3 2 5 3 NE 1009,9 9 0 0,0
10.11.2019 01:00:00 -0,6 -1,2 -3,1 1,2 6,6 12,8 0 0 3 1 N 1010,0 30 0 0,0
10.11.2019 00:00:00 -1,1 -1,7 -3,1 1,5 7,0 12,8 3 1 6 3 WNW 1010,2 25 0 0,0
09.11.2019 23:00:00 0,0 -0,6 -3,0 1,9 7,3 12,8 2 1 5 3 N 1009,9 21 0 0,0
09.11.2019 22:00:00 0,7 0,0 -2,0 2,6 7,7 12,8 3 1 4 2 N 1010,0 29 0 0,0
09.11.2019 21:00:00 2,2 1,0 -0,8 3,4 8,0 12,8 0 0 14 8 N 1010,2 6 0 0,0
09.11.2019 20:00:00 5,0 0,8 1,8 4,2 8,3 12,9 10 5 15 8 SSE 1010,3 65 0 0,0
09.11.2019 19:00:00 6,0 1,4 2,7 5,3 8,6 12,9 10 5 14 8 SSE 1010,6 60 0 0,0
09.11.2019 18:00:00 7,1 1,9 4,7 6,2 8,8 12,9 8 5 14 7 SSE 1010,7 49 0 0,0
09.11.2019 17:00:00 8,3 1,3 5,1 7,5 8,8 12,9 10 5 18 10 SW 1010,6 70 13 0,0
09.11.2019 16:00:00 9,1 2,3 7,7 9,1 8,6 12,9 12 7 18 10 SSW 1010,8 24 2 0,0
09.11.2019 15:00:00 9,7 1,7 10,8 11,2 8,2 12,9 11 6 22 12 SW 1011,0 70 50 0,0
09.11.2019 14:00:00 9,4 3,0 10,6 11,6 7,8 12,9 9 5 16 9 WSW 1011,5 55 52 0,0
09.11.2019 13:00:00 8,5 3,5 9,7 10,3 7,4 12,9 6 3 10 5 SW 1012,0 50 7 0,0
09.11.2019 12:00:00 6,8 3,5 7,0 8,3 7,0 12,9 5 3 8 4 SSW 1012,9 43 0 0,0
09.11.2019 11:00:00 5,9 4,5 7,2 7,5 6,8 13,0 5 3 10 5 NNW 1013,3 25 0 0,0
09.11.2019 10:00:00 5,7 4,2 6,6 6,3 6,6 13,0 3 2 7 4 NE 1013,1 33 0 0,0
09.11.2019 09:00:00 3,8 2,8 3,9 4,5 6,7 13,0 5 3 10 5 WNW 1013,6 23 0 0,0
09.11.2019 08:00:00 2,6 2,1 1,2 3,8 6,7 13,0 4 2 6 3 N 1013,0 8 0 0,0
09.11.2019 07:00:00 3,0 2,6 2,7 3,9 6,8 13,0 1 1 7 4 WNW 1012,8 15 0 0,0
09.11.2019 06:00:00 2,8 2,3 2,3 3,6 6,9 13,0 3 2 5 3 NW 1012,6 11 0 0,0
09.11.2019 05:00:00 2,7 2,4 1,6 3,2 7,1 13,0 0 0 5 3 N 1012,1 20 0 0,0
09.11.2019 04:00:00 2,1 1,8 -1,2 2,5 7,3 13,0 5 3 9 5 S 1011,7 38 0 0,0
09.11.2019 03:00:00 2,5 1,8 -0,5 3,2 7,6 13,0 3 2 11 6 E 1011,6 7 0 0,0
09.11.2019 02:00:00 2,6 2,4 -0,3 3,9 7,8 13,0 3 2 6 4 W 1010,9 0,8 0 0,0
09.11.2019 01:00:00 3,8 3,2 2,3 5,1 7,9 13,1 4 2 6 4 N 1010,5 7 0 0,0
09.11.2019 00:00:00 4,0 3,7 3,4 5,3 8,0 13,1 3 1 4 2 NW 1010,6 4,9 0 0,0
08.11.2019 23:00:00 4,1 3,7 3,6 5,5 8,1 13,1 3 2 13 7 N 1010,4 7 0 0,0
08.11.2019 22:00:00 5,2 2,9 4,1 5,5 8,2 13,1 11 6 17 9 SE 1009,8 55 0 0,0
08.11.2019 21:00:00 5,4 3,5 4,3 6,1 8,3 13,1 5 3 10 5 ESE 1009,1 46 0 0,2
08.11.2019 20:00:00 5,5 3,6 4,8 6,3 8,4 13,1 4 2 9 5 ESE 1009,1 31 0 0,3
08.11.2019 19:00:00 5,3 4,4 5,0 6,4 8,4 13,1 4 2 8 4 NE 1008,7 9 0 0,3
08.11.2019 18:00:00 5,7 3,4 4,8 6,6 8,5 13,1 3 2 11 6 SE 1007,9 20 0 0,3
08.11.2019 17:00:00 5,9 3,9 5,1 6,8 8,6 13,1 5 3 14 8 ENE 1007,1 18 0 0,3
08.11.2019 16:00:00 6,1 3,6 5,3 7,2 8,6 13,1 5 3 9 5 E 1006,4 19 0 0,6
08.11.2019 15:00:00 6,6 3,5 5,9 7,6 8,5 13,2 4 2 11 6 ENE 1006,0 14 0 0,3
08.11.2019 14:00:00 7,1 3,1 7,1 8,0 8,4 13,2 5 3 13 7 ENE 1005,5 54 0 0,0
08.11.2019 13:00:00 7,2 3,6 7,2 8,1 8,3 13,2 6 4 11 6 NE 1005,2 37 0 0,0
08.11.2019 12:00:00 7,1 4,3 7,2 7,6 8,2 13,2 5 3 9 5 N 1005,4 36 0 0,0
08.11.2019 11:00:00 6,8 4,5 7,1 7,4 8,1 13,2 5 3 8 4 N 1005,4 41 0 0,0
08.11.2019 10:00:00 6,1 4,3 6,2 6,7 8,1 13,2 6 4 8 5 NNW 1005,6 37 0 0,0
08.11.2019 09:00:00 5,7 4,4 5,4 6,2 8,1 13,2 4 2 8 4 N 1005,3 28 0 0,0
08.11.2019 08:00:00 5,2 4,1 4,6 5,8 8,2 13,2 0 0 5 3 N 1005,4 42 0 0,0
08.11.2019 07:00:00 5,8 3,9 4,9 5,9 8,2 13,2 5 3 8 5 NNE 1005,1 32 0 0,0
08.11.2019 06:00:00 5,9 3,8 4,8 5,9 8,3 13,2 3 2 10 5 SSW 1005,3 43 0 0,0
08.11.2019 05:00:00 5,8 3,2 5,0 5,9 8,3 13,2 7 4 13 7 NNW 1005,0 59 0 0,0
08.11.2019 04:00:00 5,8 3,7 5,0 6,0 8,4 13,3 3 2 7 4 NE 1005,1 51 0 0,0
08.11.2019 03:00:00 5,6 3,8 4,5 6,0 8,5 13,3 3 2 6 3 W 1005,4 49 0 0,0
08.11.2019 02:00:00 5,7 3,9 4,6 6,1 8,6 13,3 2 1 5 3 NNW 1006,1 48 0 0,0
08.11.2019 01:00:00 6,9 2,5 5,3 6,2 8,7 13,3 0 0 15 8 N 1005,9 60 0 0,0
08.11.2019 00:00:00 7,3 2,7 5,5 6,3 8,8 13,3 4 2 11 6 SSE 1006,1 60 0 0,0
07.11.2019 23:00:00 7,1 3,1 5,3 6,4 8,8 13,3 4 2 10 5 S 1006,2 58 0 0,0
07.11.2019 22:00:00 7,6 3,1 6,2 6,4 9,0 13,3 9 5 16 9 S 1006,4 54 0 0,0
07.11.2019 21:00:00 8,5 2,5 7,1 6,5 9,1 13,3 14 8 20 11 S 1005,9 51 0 0,0
07.11.2019 20:00:00 8,9 2,5 7,5 6,7 9,2 13,3 16 9 22 12 SSW 1005,9 49 0 0,0
07.11.2019 19:00:00 8,8 3,6 7,2 7,1 9,3 13,3 9 5 21 11 SSW 1005,8 57 0 0,0
07.11.2019 18:00:00 9,1 4,1 7,8 7,5 9,4 13,3 17 9 31 17 SSW 1005,4 64 0 0,0
07.11.2019 17:00:00 10,1 3,8 9,2 8,1 9,4 13,3 18 10 41 22 SW 1004,9 70 0 0,0
07.11.2019 16:00:00 10,5 3,6 9,7 8,8 9,3 13,3 20 11 42 23 SSW 1004,0 70 5 0,0
07.11.2019 15:00:00 11,0 5,0 10,6 9,1 9,2 13,4 23 12 40 22 SW 1003,5 70 0 0,0
07.11.2019 14:00:00 11,2 4,9 10,7 9,0 9,1 13,4 27 14 40 22 SSW 1003,1 70 0 0,0
07.11.2019 13:00:00 11,5 4,2 11,0 9,0 8,9 13,4 24 13 52 28 SSW 1002,6 70 0 0,0
07.11.2019 12:00:00 10,9 4,1 10,6 8,8 8,7 13,4 27 15 42 23 S 1002,0 70 0 0,0
07.11.2019 11:00:00 9,4 3,8 8,4 8,0 8,6 13,4 22 12 49 26 S 1002,6 65 0 0,3
07.11.2019 10:00:00 10,3 3,0 10,0 8,3 8,5 13,4 6 3 21 11 SW 1001,8 64 7 0,0
07.11.2019 09:00:00 9,4 2,0 8,1 6,2 8,5 13,4 14 7 27 14 SSE 1001,5 70 10 0,0
07.11.2019 08:00:00 8,5 2,5 6,4 5,1 8,7 13,4 13 7 19 10 SE 1002,0 70 0 0,0
07.11.2019 07:00:00 7,9 2,9 4,7 4,8 9,0 13,4 8 5 17 9 SE 1002,2 70 0 0,0
07.11.2019 06:00:00 7,5 3,4 4,9 5,1 9,2 13,4 13 7 16 9 SSE 1003,0 70 0 0,0
07.11.2019 05:00:00 7,1 4,1 2,7 5,4 9,4 13,4 7 4 14 7 SE 1003,7 70 0 0,0
07.11.2019 04:00:00 7,7 4,6 4,8 6,0 9,6 13,4 11 6 16 9 SSE 1003,7 65 0 0,0
07.11.2019 03:00:00 8,1 4,5 5,9 7,0 9,8 13,4 10 6 20 11 S 1004,3 64 0 0,0
07.11.2019 02:00:00 9,2 4,8 7,8 7,7 9,9 13,4 13 7 21 11 S 1005,0 70 0 0,0
07.11.2019 01:00:00 9,4 4,8 8,4 7,8 10,0 13,5 13 7 27 14 S 1005,8 70 0 0,0
07.11.2019 00:00:00 9,3 5,0 8,4 7,8 10,1 13,5 18 10 29 16 S 1006,3 70 0 0,0
06.11.2019 23:00:00 9,6 4,9 8,7 8,2 10,2 13,5 17 9 35 19 SSW 1006,7 65 0 0,0
06.11.2019 22:00:00 9,6 5,2 8,7 8,3 10,3 13,5 18 10 31 17 SSW 1006,9 62 0 0,0
06.11.2019 21:00:00 9,7 5,0 8,5 8,4 10,4 13,5 18 10 35 19 SSW 1006,9 47 0 0,0
06.11.2019 20:00:00 10,1 4,9 9,2 8,6 10,5 13,5 22 12 36 19 SSW 1006,7 55 0 0,0
06.11.2019 19:00:00 10,2 4,9 9,3 8,8 10,7 13,5 15 8 28 15 SSW 1006,7 66 0 0,0
06.11.2019 18:00:00 10,1 5,0 9,1 9,0 10,8 13,5 15 8 27 15 SSW 1006,5 68 0 0,0
06.11.2019 17:00:00 10,3 5,0 9,4 9,6 10,9 13,5 18 10 29 16 SSW 1006,2 70 0 0,0

tt = temperature
td = dewpoint
tt 5cm = temperature 5cm
tt -5cm = temperature -5cm
tt -20cm = temperature -20cm
tt -100cm = temperature -100cm
ff = wind speed
fx = gusts
dd = wind direction
ppp = reduced air pressure
vv = visibility
sd = sunshine duration
rr = precipitation

Next stations